GFSNW_925_rhum_138.txt.gz
RH
94 86 84 71 46 34 41 51 46 61 65 80 91 92 64 57 61 61 66 64 60 63 65 67 70 69 67 63 63 71 65 78 89 83 66 70 76 82 86 87 86 86 93 84
91 87 80 78 48 49 62 71 68 50 52 75 84 73 71 65 67 66 70 69 60 55 65 69 65 64 61 66 68 74 68 82 85 67 70 81 87 86 81 77 86 91 92 82
89 88 82 80 55 50 57 65 62 66 83 78 72 67 66 69 63 65 65 64 58 60 64 62 66 64 66 67 66 63 65 82 73 57 52 76 94 87 86 80 98 84 79 74
87 88 85 81 62 48 46 74 68 69 76 68 70 64 68 68 68 66 63 62 66 66 69 66 69 64 71 72 68 77 76 92 92 87 85 80 78 79 89 92 77 85 54 67
86 87 86 80 69 46 50 57 59 75 75 67 60 65 71 69 62 65 68 69 59 70 67 62 54 62 69 66 85 83 85 90 91 97 82 86 91 81 79 77 85 81 75 78
84 87 90 86 78 47 65 73 65 59 67 70 64 60 53 61 60 57 54 65 65 69 69 62 52 54 54 56 85 91 94 96 88 87 78 80 66 59 70 71 69 66 82 57
86 88 91 90 93 69 63 70 72 61 49 71 64 54 61 58 61 58 57 65 60 50 52 51 55 61 69 74 78 81 93 88 86 95 80 61 32 40 46 62 58 56 55 46
93 92 93 92 94 91 67 63 68 76 63 66 55 55 58 54 51 61 60 61 57 56 50 56 52 45 50 74 83 90 80 85 79 96 99 72 30 43 54 55 41 53 56 50
94 94 96 99 95 98 94 70 62 68 67 66 47 50 47 53 57 57 56 60 63 58 69 62 54 44 34 50 85 88 84 78 73 89 97 82 27 34 44 42 28 22 50 49
100 95 98 100 100 99 99 86 66 65 72 68 56 60 54 54 57 57 58 64 69 62 78 77 81 64 51 49 82 92 98 94 90 77 83 79 58 53 42 30 14 22 46 47
99 95 98 100 100 100 100 95 78 64 76 70 63 51 54 59 59 52 55 62 73 85 81 78 73 79 66 59 66 90 90 94 88 75 89 90 55 52 50 32 25 33 35 37
98 94 100 100 99 100 100 99 96 82 77 79 61 55 51 46 43 53 60 56 70 73 80 84 77 78 80 70 61 77 79 72 86 77 68 49 53 47 45 44 47 48 37 41
99 100 99 100 98 100 100 100 99 89 92 88 84 84 66 63 62 54 61 64 54 72 66 73 72 89 76 77 76 63 69 65 70 67 50 48 48 47 50 42 50 39 47 51
86 90 90 89 88 85 93 100 99 97 98 100 86 70 66 60 59 61 55 52 63 70 77 83 94 99 72 76 65 63 50 62 62 66 50 39 35 33 30 31 36 46 48 49
79 79 78 79 81 86 92 98 96 84 97 98 94 83 73 74 65 63 65 66 63 82 93 98 99 90 77 88 90 90 56 47 48 49 36 40 38 37 34 35 38 40 44 40
57 54 57 66 77 89 82 98 99 100 100 100 98 82 88 77 71 74 76 78 78 82 95 98 95 81 78 99 98 70 51 44 41 42 36 39 39 40 41 46 45 42 43 43
69 58 51 50 57 81 91 94 98 98 99 99 99 99 88 79 82 88 88 84 85 85 96 99 98 94 80 99 89 63 55 45 44 48 50 54 52 49 43 46 47 49 49 49
76 70 59 50 48 67 90 72 81 98 99 100 100 98 99 84 92 93 94 97 94 93 98 99 99 95 97 98 81 56 51 50 51 49 48 53 52 54 52 50 53 58 58 55
75 77 64 56 91 83 78 92 99 100 98 99 99 98 96 94 93 94 98 98 100 91 98 98 98 97 97 83 68 59 59 64 57 62 66 61 64 67 64 63 64 71 67 62
74 78 81 87 92 94 94 100 98 97 99 100 99 96 98 96 98 98 98 99 98 98 94 96 99 90 67 61 62 64 60 64 66 74 69 59 59 58 57 59 56 58 63 62
85 83 90 85 88 95 96 99 99 99 99 98 92 94 86 93 97 96 94 98 98 98 88 97 96 93 72 65 68 68 69 68 66 67 67 66 66 64 59 59 60 63 64 68
93 92 88 91 90 100 98 94 96 99 94 95 92 87 83 89 85 94 99 98 98 96 94 98 98 83 69 72 68 68 71 69 65 61 62 59 59 62 71 72 72 71 70 70
81 84 95 98 95 96 98 96 98 96 97 99 91 91 95 97 98 100 99 98 95 94 98 94 89 79 76 86 83 73 64 61 60 61 58 57 58 63 70 72 64 63 63 59
95 91 99 96 94 96 94 92 91 88 96 94 86 93 98 98 99 98 99 94 98 97 95 94 83 79 96 96 95 96 96 89 78 69 65 64 68 70 67 64 57 65 64 62
98 93 95 99 89 95 95 96 97 94 96 94 99 99 98 98 98 94 92 97 95 92 90 85 97 100 100 100 98 97 91 81 76 76 73 69 64 65 65 62 63 59 59 59
99 97 96 96 98 99 99 95 88 92 92 94 99 98 98 86 95 99 94 97 95 92 98 99 99 98 99 98 95 87 81 84 76 77 73 67 65 66 67 66 61 58 59 62
99 96 96 96 97 93 86 90 86 88 98 95 97 98 93 94 98 94 95 96 73 98 98 97 89 85 91 93 92 88 84 81 77 76 72 71 67 68 72 68 61 64 66 67

GFSNW_925_rhum_141.txt.gz
RH
91 85 81 78 59 43 46 48 47 57 62 80 91 91 62 56 64 62 69 64 61 60 64 68 70 67 63 63 62 70 64 75 88 86 70 71 78 82 83 82 83 79 86 84
90 84 81 77 62 49 57 69 68 47 51 74 85 74 72 64 64 65 72 68 63 57 63 67 66 65 62 67 67 75 72 81 84 60 69 80 87 85 82 76 82 93 90 74
89 85 81 76 66 48 46 63 63 65 83 81 72 68 69 70 65 67 67 64 60 62 67 65 67 66 67 69 66 65 65 82 69 57 49 76 94 91 87 78 96 84 76 66
86 85 82 76 68 45 38 76 68 70 81 70 70 62 67 69 71 67 67 66 69 66 71 70 73 67 75 74 70 78 76 91 92 88 82 80 76 73 90 92 75 83 54 67
85 84 85 77 70 49 48 59 60 67 75 69 61 65 71 66 62 69 69 70 60 70 67 62 62 67 70 69 88 86 86 84 92 96 78 80 88 80 78 76 82 79 72 72
84 84 88 86 77 56 61 75 69 60 61 68 59 54 54 58 60 59 55 66 65 72 71 64 54 57 55 56 85 92 95 97 90 87 75 78 60 61 61 72 73 68 78 54
84 82 90 92 86 80 60 64 69 64 56 70 61 54 58 56 61 62 58 64 60 51 54 53 54 62 66 70 77 82 96 89 86 95 76 53 31 43 48 59 62 56 54 47
86 89 94 94 90 87 78 62 63 70 64 66 57 52 58 53 51 62 62 61 59 58 50 60 50 43 42 74 86 90 81 85 80 92 94 69 38 42 56 54 41 54 54 49
93 94 94 95 98 95 96 79 61 63 67 74 48 52 48 55 56 55 52 61 63 58 66 59 56 41 32 44 88 91 83 78 70 96 99 71 28 31 48 46 27 16 53 51
93 98 95 96 100 99 100 92 70 64 76 67 53 60 52 53 56 56 54 62 69 63 79 76 75 60 46 46 79 96 90 90 90 75 82 77 57 44 42 34 17 24 52 52
92 100 95 97 100 99 100 97 88 66 79 73 63 54 53 58 57 56 55 62 72 82 83 80 75 77 61 58 65 87 86 88 88 77 84 89 57 53 43 31 25 28 39 37
96 96 94 99 99 100 100 100 99 88 86 83 68 61 61 46 47 54 57 61 67 73 79 81 75 79 82 67 59 77 78 67 82 73 67 49 54 50 44 41 43 45 43 44
98 99 98 100 100 100 100 100 99 96 96 91 90 85 70 68 67 64 74 66 56 70 72 88 97 99 77 82 82 61 71 64 71 69 53 47 43 46 44 44 46 40 37 41
87 89 89 89 90 91 96 100 98 97 94 100 88 75 70 63 62 62 62 58 65 71 81 91 98 99 76 85 68 66 52 65 66 67 53 43 40 36 34 36 37 43 43 47
68 73 75 77 80 82 88 93 99 99 89 99 94 82 71 81 72 69 69 68 68 84 93 98 98 98 86 85 90 93 57 52 56 57 41 40 39 42 45 43 44 43 46 47
71 63 57 54 58 69 78 95 99 99 100 100 99 78 86 81 74 76 78 79 78 84 98 98 98 87 86 99 96 69 58 52 48 52 43 44 43 43 44 48 46 46 51 50
75 76 71 61 54 56 85 92 100 100 93 97 96 99 90 80 82 90 91 84 86 86 95 99 98 97 93 99 91 60 55 50 47 46 54 59 52 52 48 50 50 52 53 53
52 52 66 66 59 55 74 62 69 88 95 98 100 97 98 86 94 92 94 97 94 92 97 99 99 97 98 98 70 57 54 53 58 53 51 53 55 62 60 56 59 63 60 56
56 57 61 72 86 91 79 92 97 98 98 100 94 99 94 92 92 95 98 98 99 91 98 98 98 98 97 81 78 70 66 68 67 69 70 71 71 71 67 68 68 70 61 58
55 77 72 83 78 89 84 100 99 100 99 100 98 91 94 93 98 96 95 99 94 98 91 95 98 80 67 64 67 65 68 74 76 81 81 75 73 67 65 62 59 62 64 65
83 83 88 79 73 91 92 80 96 97 99 96 82 92 88 90 97 91 95 97 97 98 86 96 91 91 83 77 75 75 76 73 68 65 68 65 67 66 65 67 69 72 71 73
90 91 88 86 82 95 89 96 97 98 95 94 83 84 80 86 86 92 98 98 98 97 86 98 98 84 80 93 90 93 90 86 83 76 74 67 64 66 74 76 75 70 68 68
84 94 96 94 91 98 97 99 96 93 96 97 92 93 97 98 98 100 99 99 94 93 98 92 88 80 96 100 96 90 87 76 77 80 77 76 72 68 66 75 70 68 71 63
94 82 85 88 91 96 92 93 93 91 98 94 88 93 98 98 98 95 92 93 98 100 99 92 90 87 99 100 98 97 79 76 82 80 77 73 67 73 68 67 67 70 67 66
96 94 90 96 88 96 96 98 97 95 90 95 98 99 98 98 94 96 96 99 97 90 91 89 95 98 99 99 94 92 94 77 68 75 81 84 82 80 73 66 69 70 66 64
98 98 96 96 98 98 100 100 98 97 90 90 97 95 99 95 93 90 88 88 87 85 96 96 98 98 94 93 87 83 87 86 78 82 88 88 86 78 71 70 71 65 64 70
98 93 96 95 96 91 93 85 79 82 95 90 87 96 81 93 97 96 94 98 90 78 68 83 96 95 78 74 72 70 83 90 86 87 82 84 79 81 83 77 64 68 69 70

GFSNW_925_rhum_144.txt.gz
RH
87 84 75 75 67 43 48 52 49 50 57 66 65 67 52 54 59 58 60 54 51 43 53 52 54 52 52 50 51 56 54 54 64 53 60 59 60 57 54 56 69 62 65 76
84 83 78 73 69 46 53 45 44 39 50 68 63 64 64 56 56 57 61 59 54 52 51 55 55 56 59 55 53 58 58 60 60 52 62 66 69 62 58 58 60 69 60 48
87 84 80 73 70 48 40 42 63 52 53 58 49 57 62 59 63 60 61 59 54 55 58 57 59 57 62 61 56 64 56 59 52 37 37 55 69 66 64 61 76 53 53 40
84 83 79 75 69 51 39 52 57 59 65 53 56 53 57 61 62 62 61 61 59 56 57 60 60 58 63 66 66 65 60 73 73 60 53 53 53 47 56 77 63 51 26 30
84 81 80 78 71 53 48 48 47 54 55 57 56 57 58 55 57 60 63 64 51 57 52 44 44 52 55 50 73 68 69 73 75 73 52 57 67 54 53 50 52 51 47 43
83 85 78 82 77 59 61 70 68 47 54 56 46 44 50 53 58 55 49 54 52 60 54 47 41 40 43 44 58 68 73 75 71 55 56 56 48 34 42 46 43 45 54 38
83 88 76 82 85 80 57 63 64 49 51 51 47 51 52 51 54 57 55 56 54 49 49 50 49 52 55 54 55 59 72 72 68 72 60 59 29 32 34 40 40 40 39 36
85 90 83 82 90 88 79 64 61 53 63 51 52 50 51 48 46 52 56 54 51 52 46 52 44 36 38 65 73 67 64 59 60 65 71 43 28 42 42 44 26 30 37 36
85 93 90 91 94 95 92 80 58 60 61 64 44 48 47 50 46 45 50 59 60 52 55 54 52 42 32 35 84 77 76 67 61 76 81 54 27 32 40 38 23 18 35 34
84 91 87 92 95 99 96 93 70 65 73 63 47 53 51 47 50 52 50 57 65 60 63 65 62 46 38 34 51 91 90 83 84 70 71 56 38 36 42 40 16 24 32 32
93 90 92 91 97 100 96 97 93 66 75 71 57 50 52 57 56 66 54 61 67 69 72 66 56 55 44 46 48 71 68 74 78 70 77 77 45 50 44 25 24 22 29 30
100 98 94 92 95 100 100 99 99 87 88 78 71 62 58 47 51 58 58 60 64 66 68 67 61 61 59 49 44 65 59 50 54 54 55 40 43 37 34 37 37 35 33 33
96 98 100 98 96 99 100 100 98 98 94 84 84 75 69 71 71 54 75 62 58 75 65 78 86 99 63 62 57 43 53 46 56 56 40 41 33 30 34 36 36 34 35 36
92 92 93 92 92 96 100 99 99 97 95 99 81 73 73 68 66 68 66 62 62 66 72 92 99 100 78 89 61 58 46 54 52 51 43 39 36 33 32 33 36 38 37 38
69 70 72 74 76 78 84 93 98 95 90 90 82 70 70 77 70 69 68 69 64 70 90 97 95 96 93 79 76 84 53 52 55 53 37 37 39 36 37 42 44 42 43 44
82 74 64 56 53 56 70 86 97 98 97 98 99 76 84 81 77 78 79 80 72 81 90 100 98 85 84 100 99 55 50 49 45 49 41 43 43 42 40 44 44 43 47 48
65 73 79 71 62 54 80 80 99 100 99 95 94 86 82 81 82 86 84 84 78 81 93 98 100 97 91 98 91 57 48 44 44 42 44 51 47 48 42 44 46 50 46 43
49 44 47 58 66 65 68 50 50 74 93 95 89 88 91 85 86 83 85 86 86 88 90 99 100 97 98 98 71 57 52 50 48 45 43 48 48 51 50 49 46 49 50 47
63 54 61 74 83 86 75 89 93 90 94 96 99 86 85 84 85 85 88 93 98 81 99 99 98 100 97 74 67 61 59 62 62 59 59 59 58 54 49 50 51 55 54 52
59 70 74 81 89 92 86 97 95 99 94 99 94 80 86 83 89 91 88 99 91 96 76 88 100 74 56 56 63 66 66 62 60 62 63 61 57 53 51 53 54 58 60 59
81 85 83 82 78 80 93 89 96 90 98 96 82 83 80 83 89 84 83 92 90 92 73 86 83 80 69 74 83 77 72 71 74 70 70 67 64 62 59 54 54 56 56 55
86 88 90 86 82 90 84 91 87 91 82 84 91 84 77 76 82 93 94 91 91 91 76 95 85 69 90 87 92 90 74 63 64 69 72 66 62 59 63 61 60 58 61 60
86 93 92 88 84 95 94 95 91 93 84 92 94 94 97 98 99 100 98 100 89 79 95 79 67 78 97 100 100 90 76 68 62 58 61 62 58 60 61 65 65 66 63 60
82 87 87 82 91 90 82 80 83 82 93 94 95 95 91 91 99 87 96 74 90 91 95 74 60 83 99 99 89 90 73 67 69 67 59 60 65 68 71 71 67 70 66 67
86 90 90 94 74 84 84 91 92 88 92 93 90 88 89 88 95 90 84 92 91 83 78 84 92 98 98 86 81 80 73 65 68 68 68 68 68 70 71 68 68 72 74 69
98 98 99 87 96 94 98 98 93 84 85 88 85 80 95 85 94 90 80 81 72 77 88 70 80 95 96 95 80 70 65 57 58 68 77 80 76 74 72 69 71 71 67 70
97 98 90 81 83 79 78 79 76 78 86 82 81 92 82 74 92 96 84 87 68 76 68 56 46 51 51 62 70 65 66 53 53 63 73 82 78 79 82 74 63 63 64 70

GFSNW_925_rhum_147.txt.gz
RH
84 78 74 76 71 49 60 47 46 61 70 59 46 58 43 46 48 49 47 41 35 29 36 34 37 38 44 40 42 45 44 44 54 44 48 46 41 39 36 43 53 50 53 68
81 80 73 71 72 58 66 35 31 47 61 60 46 51 50 44 48 46 49 47 47 42 38 46 44 44 52 46 45 48 46 48 54 49 54 54 59 48 42 38 52 60 52 46
79 81 75 71 65 61 55 37 65 47 39 39 36 44 47 49 56 48 49 48 45 46 46 45 48 48 57 50 49 62 52 43 43 40 35 43 55 51 49 50 70 42 40 34
76 80 78 75 66 57 51 45 50 47 53 43 41 43 45 47 52 52 51 52 47 43 44 45 46 45 55 57 66 55 50 59 64 50 42 38 40 39 35 59 56 41 26 22
75 82 79 78 71 52 51 49 45 46 42 43 46 48 44 45 45 50 50 56 39 43 40 33 33 36 39 37 58 57 54 59 58 56 32 36 47 41 38 37 35 42 43 41
70 80 80 79 75 59 54 58 54 45 50 44 40 35 39 43 48 46 44 46 44 45 42 38 35 31 33 31 42 54 56 62 57 54 43 47 43 29 29 35 35 34 41 32
69 81 82 83 78 77 67 64 56 49 47 44 39 43 43 42 44 48 46 47 48 46 41 41 41 40 40 41 41 39 51 57 57 64 50 56 29 24 28 28 25 27 30 29
69 82 82 86 82 81 82 73 58 52 57 47 47 49 44 40 39 44 44 42 44 44 44 48 45 39 39 50 58 51 56 50 56 64 49 38 29 36 35 36 27 19 24 25
76 84 84 81 84 87 92 87 61 56 62 53 40 47 45 50 46 44 44 50 51 49 48 49 53 49 30 40 74 72 62 61 54 56 72 56 30 35 32 34 31 19 26 26
86 90 92 86 86 91 97 94 76 68 71 57 44 56 53 43 51 56 45 47 58 54 55 61 59 53 32 38 38 81 80 76 76 66 66 50 38 38 38 44 22 24 24 26
94 92 96 95 90 96 99 96 92 73 73 62 56 46 57 55 50 62 52 58 61 62 66 60 56 52 40 41 33 57 60 67 74 66 71 78 35 44 44 32 25 26 31 34
100 99 99 98 93 97 100 100 98 92 88 72 79 69 62 54 51 56 54 57 52 51 63 58 51 57 49 45 51 43 54 42 44 49 50 33 35 33 30 30 34 35 36 36
98 97 96 98 93 88 97 99 96 96 97 80 73 63 62 73 66 55 71 59 52 65 61 84 93 93 64 65 54 48 42 37 51 44 33 33 30 30 31 31 34 37 38 40
95 95 94 96 96 98 100 99 98 94 95 96 62 66 69 68 68 72 63 59 61 64 69 85 94 100 69 82 61 62 45 49 50 48 40 35 33 32 32 36 37 39 39 40
68 72 75 76 81 85 91 95 96 92 90 84 68 58 48 71 70 73 72 67 67 72 83 91 99 92 82 86 80 77 53 55 57 56 37 38 40 37 38 42 42 40 43 44
77 70 63 56 53 53 61 79 93 100 98 83 80 58 72 77 76 76 75 72 67 78 90 94 89 81 73 93 90 52 48 46 45 50 42 42 42 41 38 40 41 42 46 48
68 74 78 74 65 53 78 77 99 100 100 99 96 81 73 78 80 82 79 75 75 77 92 98 99 96 86 96 88 53 46 43 42 39 40 47 40 43 41 45 46 46 43 42
68 67 67 65 69 68 70 53 50 52 87 90 95 82 72 82 88 88 80 88 87 90 90 97 99 93 97 98 62 47 48 49 48 44 42 48 48 48 47 42 45 50 49 48
80 65 54 69 89 78 86 93 80 81 92 87 90 80 70 79 81 79 85 86 96 77 98 96 99 96 95 78 64 57 57 58 56 52 50 49 48 46 42 42 44 48 48 48
65 73 79 71 89 91 89 97 80 88 85 85 92 67 72 69 80 86 80 92 88 88 69 81 98 78 54 45 45 59 61 62 62 63 65 67 64 58 54 51 44 43 44 45
90 75 71 93 76 89 77 94 96 89 94 80 70 63 68 71 76 70 71 80 85 88 61 79 72 61 47 64 66 64 61 59 59 63 64 65 66 69 64 58 50 49 49 48
91 85 84 84 72 86 91 78 75 82 70 72 94 80 74 74 71 74 85 86 81 81 71 90 75 48 71 76 84 79 70 61 56 50 55 53 49 50 50 50 51 52 52 55
84 86 98 78 86 89 84 82 77 86 78 85 93 91 92 97 99 98 92 96 82 70 91 70 50 69 78 91 94 81 67 64 55 52 51 52 53 53 56 57 59 61 59 58
75 79 90 81 82 72 66 63 66 71 82 85 85 84 83 76 98 89 93 69 84 94 90 73 43 72 86 91 96 86 72 51 50 48 46 49 57 59 60 61 61 62 57 55
80 87 84 86 64 68 72 82 84 77 78 75 73 75 77 82 95 75 75 84 85 69 51 70 84 99 98 100 77 64 49 48 44 44 46 45 51 56 59 58 54 60 62 59
94 95 94 74 85 78 85 86 89 73 71 75 70 82 86 80 74 78 80 75 57 48 80 72 59 81 86 90 75 49 44 48 46 49 53 49 50 58 62 61 61 61 66 62
90 94 80 72 73 74 61 68 70 56 75 88 81 94 78 64 78 66 52 62 58 73 66 58 49 41 37 35 38 39 42 45 46 46 48 49 51 58 65 70 67 60 60 58

GFSNW_925_rhum_150.txt.gz
RH
72 76 75 77 77 54 55 56 72 51 54 79 62 73 45 46 46 46 45 43 37 31 31 32 35 37 48 38 40 46 50 54 80 57 51 50 53 43 45 77 64 66 69 80
71 69 71 73 74 68 60 53 49 54 62 84 64 48 50 44 45 43 46 44 46 40 35 46 43 44 51 44 44 56 49 61 77 62 58 54 61 50 48 44 67 77 77 78
63 65 73 70 68 67 56 60 82 70 57 46 42 48 48 52 53 48 47 48 45 44 45 42 48 50 57 48 49 56 57 50 55 73 49 47 61 55 54 56 92 71 60 42
58 64 75 73 66 58 58 61 62 54 74 57 48 44 43 49 57 54 49 51 51 45 44 45 47 42 64 58 66 58 58 65 60 61 58 51 50 49 47 66 61 67 38 39
60 64 76 76 69 56 54 71 64 52 47 43 49 50 47 44 51 50 54 58 40 44 49 43 38 35 42 46 66 60 57 75 59 68 54 54 56 49 47 44 41 48 53 54
58 67 81 82 74 65 57 56 52 59 53 48 45 43 40 43 48 46 42 45 45 46 46 47 45 44 39 38 59 67 67 77 74 78 49 58 67 46 45 46 43 41 49 37
57 64 81 86 79 80 74 65 60 63 57 51 45 41 41 42 45 53 45 47 47 51 41 43 47 47 44 43 43 42 54 64 72 88 68 79 44 30 27 35 37 35 36 35
60 62 78 92 85 82 84 77 66 67 72 53 48 48 50 41 41 51 46 44 52 46 46 56 55 52 43 48 64 65 56 63 72 83 72 56 39 38 37 38 35 26 25 26
63 59 74 93 92 88 90 88 69 67 79 62 42 47 47 57 54 52 47 52 51 53 62 59 66 68 39 63 84 69 66 67 79 68 84 80 34 39 32 35 41 25 31 36
65 63 74 83 90 90 96 90 84 75 83 60 49 59 59 48 57 65 48 56 64 59 68 73 72 66 34 44 55 93 80 81 93 86 85 71 41 41 38 52 35 27 30 38
74 85 93 96 93 91 98 95 90 81 80 74 56 49 58 61 63 71 60 67 70 74 79 78 71 66 48 45 48 71 81 89 89 77 81 89 45 46 47 43 39 39 42 43
99 98 98 98 100 98 98 97 90 92 90 86 76 71 64 60 57 62 60 67 60 65 76 75 72 69 59 52 58 42 60 54 64 66 68 46 43 39 37 38 44 44 48 48
93 99 97 98 99 98 97 99 97 95 97 89 88 75 65 71 68 59 76 66 56 65 69 89 93 98 74 80 66 53 48 40 54 51 39 38 40 37 35 39 45 47 47 48
92 96 95 91 90 90 98 100 98 95 95 97 71 61 64 66 66 72 63 63 61 68 74 90 96 99 74 84 81 76 56 53 53 55 47 44 40 38 41 45 44 46 44 46
73 76 78 78 81 85 92 95 92 97 91 97 85 61 51 54 68 69 73 72 71 82 93 98 98 98 82 87 89 81 58 60 63 63 48 49 49 46 43 48 47 47 52 52
82 77 72 65 59 56 62 94 99 99 95 96 95 61 72 76 75 76 75 74 79 86 92 92 88 82 78 92 89 56 52 49 49 57 48 50 46 45 44 49 52 53 54 52
73 74 78 77 70 57 87 93 100 98 96 97 99 94 85 78 80 84 85 77 84 86 95 99 92 97 88 98 88 57 52 50 49 47 51 56 51 59 54 54 48 48 49 50
68 65 57 54 60 64 68 64 53 56 82 93 100 94 79 80 90 95 88 96 95 95 96 97 99 95 97 98 71 56 52 54 54 51 55 57 55 52 48 44 47 54 55 53
69 61 55 66 81 81 85 81 68 71 96 96 88 93 89 84 89 91 94 95 99 89 99 99 99 99 97 84 73 61 57 59 58 58 60 54 59 59 56 55 54 53 54 52
68 69 93 84 87 83 91 78 92 95 92 97 85 75 90 82 87 91 91 98 96 98 86 90 99 80 60 54 63 59 63 61 64 75 75 71 77 72 69 68 64 61 60 58
91 82 81 89 76 84 90 94 89 90 98 88 82 70 77 76 88 86 86 95 89 89 88 94 91 93 66 72 74 69 66 63 64 65 68 68 74 78 78 75 67 59 56 60
88 83 78 79 86 94 94 96 88 91 85 87 86 95 78 84 82 89 90 92 92 88 82 96 96 65 84 84 86 80 79 73 72 66 69 62 58 57 58 60 60 61 58 59
81 84 96 93 94 86 96 95 92 93 91 77 95 87 97 97 96 96 96 97 88 85 92 84 78 83 86 90 92 76 66 65 62 55 52 53 54 52 56 64 61 61 63 66
93 89 99 93 95 93 86 84 88 92 92 76 89 97 98 96 99 98 98 93 98 97 96 93 92 88 86 85 87 85 81 68 54 54 58 51 54 53 47 49 56 61 65 60
92 94 97 94 81 89 94 98 93 90 85 85 89 94 87 95 97 93 89 94 96 85 82 94 99 97 98 100 99 91 75 63 57 50 49 50 51 53 54 50 51 59 62 61
96 96 96 91 94 93 96 96 96 82 82 84 91 91 94 94 91 88 90 88 84 83 93 93 86 94 97 98 87 65 70 66 47 42 48 53 54 53 51 51 52 56 62 65
92 96 91 90 93 93 90 86 84 65 91 96 95 99 90 90 93 95 83 85 84 72 59 56 42 43 39 37 40 40 38 40 42 43 45 49 51 52 55 61 56 58 62 66

GFSNW_925_rhum_153.txt.gz
RH
58 59 64 70 79 68 51 68 64 40 47 73 82 74 49 46 50 49 48 46 43 44 35 34 40 49 52 44 43 52 54 62 90 66 55 52 55 54 55 61 54 74 75 78
54 53 62 61 71 81 65 74 56 54 61 78 72 51 51 50 48 46 49 48 48 43 45 49 49 64 57 49 54 65 58 65 84 70 62 59 59 54 52 54 72 74 86 77
52 50 57 61 62 70 61 75 79 73 70 62 50 48 51 56 53 52 50 51 47 47 48 46 52 66 60 51 58 54 59 62 65 73 53 58 71 61 59 59 89 74 77 58
53 48 55 59 57 59 55 76 67 58 80 59 55 47 48 54 62 58 52 55 54 51 50 52 53 63 69 60 63 60 66 72 62 64 64 62 59 57 62 77 63 72 47 52
58 48 52 61 59 56 51 72 72 70 60 48 52 53 48 48 52 58 60 64 47 53 53 45 44 49 60 67 74 71 68 67 66 75 61 61 73 64 60 53 52 66 60 62
67 53 54 65 69 64 66 63 58 65 64 57 53 53 44 46 46 48 46 50 50 48 50 50 49 50 49 52 73 80 78 82 82 82 64 65 63 55 52 56 51 48 56 42
70 61 59 73 70 76 81 70 71 80 74 59 56 43 44 45 48 54 49 48 52 51 46 46 47 52 54 52 50 62 74 79 81 91 72 76 46 33 31 49 45 45 42 40
72 65 59 74 79 79 83 82 72 83 81 70 60 48 50 46 44 48 46 53 55 53 48 60 63 58 45 54 73 70 68 71 79 88 83 63 44 37 38 33 34 30 33 39
74 68 64 78 93 82 87 88 75 80 88 72 44 51 50 66 65 56 51 56 54 54 68 66 69 76 53 54 74 73 70 75 75 82 85 84 41 38 36 37 39 29 38 40
75 71 70 86 95 91 89 89 88 82 93 79 52 62 68 57 66 76 52 57 62 62 79 80 82 74 40 54 72 86 88 83 96 94 94 77 54 39 38 50 40 28 33 39
79 75 81 98 100 100 99 97 84 86 92 88 61 52 60 70 74 82 66 72 75 80 82 86 81 82 64 50 64 83 86 95 95 86 93 90 47 46 47 42 42 40 47 47
79 79 90 96 96 98 99 94 92 85 91 89 79 72 65 62 59 71 67 74 72 77 84 87 82 76 72 64 70 52 73 66 82 75 72 48 48 39 38 41 46 48 50 50
83 94 98 89 94 94 98 98 96 96 99 91 91 85 66 67 73 61 76 81 65 67 76 90 91 92 85 85 80 56 49 44 54 51 45 45 42 40 40 44 50 50 50 53
94 98 100 96 93 93 99 100 98 94 94 99 83 67 65 61 58 64 69 67 64 72 77 84 94 98 83 91 80 82 64 60 59 64 54 48 47 48 52 50 51 54 55 54
83 86 85 83 83 87 93 95 99 99 97 97 93 74 65 58 63 64 69 77 80 83 93 98 96 97 89 90 94 96 65 60 65 64 47 56 56 53 50 54 57 58 59 60
81 75 69 65 60 57 62 95 98 100 100 99 99 72 76 75 73 74 76 81 84 90 97 98 95 86 85 99 99 67 55 52 49 55 49 55 56 52 55 57 59 54 54 56
76 77 78 77 71 59 84 91 97 84 92 96 88 95 86 79 80 86 88 83 90 93 96 98 93 96 86 100 88 62 56 51 48 45 51 56 54 60 57 50 48 51 52 52
64 61 55 51 52 59 66 60 61 64 80 92 94 96 86 82 89 96 91 96 96 94 96 97 99 93 96 97 74 56 50 47 51 55 54 58 59 56 52 48 48 53 55 55
69 60 53 60 61 82 83 84 78 70 90 96 94 93 88 86 85 93 96 96 99 92 90 99 99 91 96 81 83 71 61 60 59 58 62 60 62 70 69 67 67 67 66 63
65 59 89 91 88 84 90 88 96 95 93 97 96 84 94 86 80 91 95 99 92 99 95 97 99 87 74 69 68 64 63 61 64 73 77 73 79 81 81 81 79 80 78 71
87 92 90 92 87 81 96 86 89 90 90 81 74 91 89 74 92 90 90 95 93 91 82 96 92 93 79 68 74 73 73 71 69 68 70 73 76 80 83 80 76 70 64 67
88 82 82 82 90 94 92 100 94 98 88 94 90 94 87 87 90 92 92 90 96 82 80 99 98 80 83 90 91 88 76 65 62 58 69 63 65 64 67 67 66 63 62 63
68 81 90 89 90 88 98 100 96 97 95 84 91 82 95 90 92 99 96 98 94 88 96 82 85 95 95 97 89 79 63 57 54 52 46 47 56 54 58 61 53 57 63 60
93 93 100 89 97 96 91 90 89 88 94 81 92 100 100 99 100 98 99 90 98 100 98 93 97 98 99 100 100 98 90 80 80 72 60 60 62 60 54 52 53 57 58 57
90 95 99 98 84 94 98 100 95 94 92 90 93 94 93 98 100 97 90 87 98 90 89 96 96 85 86 89 87 70 64 62 60 61 61 58 57 55 53 53 54 55 54 55
97 99 98 93 95 95 100 99 97 91 90 88 94 96 99 96 98 95 96 97 95 82 94 93 91 91 85 72 67 68 65 64 59 63 68 67 55 51 51 52 53 51 50 52
98 97 95 96 96 90 95 91 90 82 86 99 98 98 94 90 96 100 90 88 71 80 84 86 71 54 48 47 48 46 46 44 43 44 46 48 45 49 57 60 53 51 52 55

GFSNW_925_rhum_156.txt.gz
RH
48 43 47 52 67 54 43 68 54 48 52 69 82 71 50 43 51 50 50 47 44 41 37 36 47 53 52 47 46 56 54 69 86 62 56 56 47 48 60 62 39 77 71 72
51 43 45 48 61 63 60 72 64 52 45 70 71 52 50 53 50 49 50 50 49 45 46 49 51 61 55 50 57 60 57 65 84 66 59 59 60 56 54 59 74 75 85 69
61 46 45 44 49 54 54 74 66 69 72 67 52 50 51 52 52 54 51 52 49 49 50 48 56 68 60 55 60 58 54 66 60 58 50 68 72 67 62 61 87 69 79 56
72 54 48 47 41 53 52 75 64 60 73 55 57 51 49 55 56 57 53 55 55 53 55 56 56 69 68 62 62 60 63 62 68 69 62 62 62 61 65 76 58 66 49 65
73 64 53 57 46 49 51 64 61 70 63 53 50 54 50 50 51 54 57 60 52 54 55 49 51 59 66 65 74 70 72 58 72 76 66 69 76 71 65 59 63 69 63 65
73 68 58 64 56 55 64 68 65 67 67 60 55 53 46 48 47 47 48 55 53 51 49 51 51 52 51 50 74 81 81 80 84 74 69 69 67 55 59 64 58 52 61 46
74 69 60 64 73 71 74 72 74 77 62 67 59 45 43 46 48 54 50 49 51 49 49 50 50 56 57 56 63 69 85 77 82 93 70 78 50 42 39 54 49 52 50 45
80 75 66 58 73 76 81 80 72 84 74 80 64 49 49 50 47 51 48 53 54 59 51 56 65 64 52 62 74 67 70 79 81 88 88 68 46 38 37 36 36 34 42 42
81 78 72 68 71 84 89 85 78 81 88 67 53 53 52 67 69 64 51 57 56 56 69 70 71 79 62 52 70 72 77 74 78 88 90 84 49 37 36 34 44 34 40 40
83 80 74 74 82 90 91 91 88 82 93 86 59 68 69 63 72 79 63 54 60 63 82 84 87 81 54 59 73 91 91 90 88 89 91 82 57 44 38 55 48 32 44 48
85 84 78 82 97 98 97 95 89 88 95 88 71 57 65 73 79 83 69 71 78 85 87 89 86 87 73 55 59 83 89 94 96 79 92 92 51 46 54 47 44 52 50 49
93 89 80 91 97 94 93 90 92 86 92 88 81 71 63 57 58 80 76 73 78 79 84 89 89 87 80 71 74 69 70 68 82 78 72 52 49 42 41 48 54 51 52 52
100 90 88 94 94 95 93 99 94 94 99 93 90 85 66 69 70 67 84 86 65 76 77 88 89 92 86 86 86 59 54 56 62 64 50 51 43 42 45 46 50 51 53 55
99 99 94 94 95 90 94 99 96 96 87 100 83 71 69 66 69 73 64 65 67 71 82 88 91 94 76 92 80 83 67 60 62 62 57 50 49 48 52 55 53 53 56 57
92 94 94 90 87 87 91 97 97 98 94 98 93 79 68 68 68 67 71 78 82 88 91 98 91 90 87 87 91 78 77 63 67 61 51 64 61 55 53 54 56 58 60 58
74 73 69 66 64 63 64 91 98 98 98 100 100 76 76 74 74 77 80 85 91 93 96 95 93 85 85 100 90 72 63 56 51 55 52 62 59 57 54 57 56 54 55 56
83 76 73 71 67 59 76 87 92 84 90 92 92 92 82 81 83 88 90 88 92 95 90 96 88 94 94 100 95 67 60 53 52 54 62 65 58 58 56 53 50 50 52 52
63 59 54 53 57 63 65 63 72 81 89 92 87 86 83 85 86 91 94 94 95 92 95 97 99 97 99 99 88 63 54 50 51 48 55 59 57 58 59 58 60 65 64 61
70 63 56 54 53 68 80 89 81 71 85 96 95 89 89 84 86 79 91 97 99 89 99 98 97 95 97 86 82 79 76 66 62 64 63 59 62 72 73 71 73 75 77 74
70 61 77 90 90 95 95 92 95 93 91 94 99 90 90 85 88 91 96 94 85 92 89 96 99 80 64 75 78 79 72 62 65 68 74 75 77 79 78 76 80 84 86 82
80 90 89 88 93 85 91 88 94 96 83 72 72 90 91 79 94 89 90 94 92 87 78 90 85 93 83 91 92 89 84 75 69 66 66 69 76 81 80 78 72 69 67 71
87 83 89 86 86 92 89 94 90 96 88 92 96 92 89 88 92 95 94 92 96 88 81 98 98 84 95 96 83 73 74 80 79 67 61 53 51 51 63 68 66 60 60 59
75 72 81 84 93 100 100 97 93 99 95 95 95 91 87 83 86 99 86 98 95 90 99 87 86 92 96 99 99 90 66 55 43 49 42 61 75 53 54 61 57 57 56 52
88 88 91 80 99 96 92 88 88 84 91 94 88 97 94 95 84 87 98 90 98 98 96 95 98 94 96 98 97 76 59 54 56 51 52 72 68 58 55 56 56 57 62 58
89 91 96 100 83 95 95 96 97 96 91 91 94 94 93 99 99 99 95 93 100 96 88 88 94 87 90 91 79 77 73 64 61 57 58 59 58 60 60 60 60 57 57 60
96 98 98 92 97 96 99 99 95 95 94 90 91 97 96 84 100 98 100 98 96 78 92 91 89 89 88 87 83 63 46 55 57 54 56 57 55 56 53 50 48 49 56 58
100 95 93 96 96 91 96 90 88 84 89 97 98 100 92 91 100 100 92 92 51 64 75 84 83 75 68 71 54 47 48 50 49 49 50 52 49 51 56 60 54 54 54 54

GFSNW_925_rhum_159.txt.gz
RH
58 46 41 45 48 51 45 58 58 52 53 69 85 71 50 45 51 50 52 49 46 40 40 42 48 49 56 53 48 53 57 63 78 50 57 56 48 57 63 65 44 78 67 69
70 54 44 46 43 49 52 73 69 45 43 63 69 54 51 52 50 52 54 53 53 47 47 46 52 59 55 54 59 57 52 61 74 55 58 60 67 65 54 58 72 79 71 56
73 65 52 48 43 50 50 67 62 65 71 68 54 51 52 50 53 54 52 55 50 50 51 51 56 66 60 57 60 60 52 66 52 49 42 66 70 68 65 61 88 67 75 48
76 70 58 50 44 49 44 73 64 62 74 57 57 54 50 55 55 58 55 56 54 54 55 55 56 68 67 63 65 64 59 60 70 70 65 60 62 62 71 77 61 62 47 61
78 69 61 53 48 46 52 60 56 70 67 59 51 55 50 52 51 54 55 57 54 59 59 52 50 61 66 59 74 67 75 59 75 72 64 73 74 71 70 66 63 68 58 62
81 75 66 55 52 47 64 72 69 62 69 63 56 55 46 47 50 48 49 57 56 55 53 51 49 51 52 54 73 80 80 77 82 67 74 74 70 63 61 62 64 55 58 44
82 78 71 63 65 64 70 74 74 71 53 70 61 49 44 46 48 49 51 51 53 49 51 50 52 59 63 62 74 72 88 79 84 92 74 79 48 45 43 57 56 57 50 47
83 79 71 67 66 70 76 80 74 84 67 79 69 65 50 54 52 53 52 52 55 61 55 56 63 67 55 66 74 76 77 80 81 86 90 70 48 41 45 47 38 44 48 42
82 83 78 72 70 77 79 82 81 82 84 66 56 55 56 65 72 71 52 57 59 58 70 69 71 75 66 57 70 78 80 79 73 94 95 86 51 36 37 34 56 43 44 43
83 86 84 80 74 78 82 88 86 84 93 84 61 73 69 66 73 79 74 55 59 63 82 82 88 83 63 64 72 95 93 90 91 87 86 78 58 44 39 62 56 40 49 52
83 88 89 84 91 99 98 94 90 86 95 89 77 65 64 74 79 79 68 72 77 87 81 86 83 88 76 61 64 86 92 94 92 84 92 91 53 44 56 52 48 56 53 51
83 89 92 86 94 93 94 87 86 87 89 88 80 74 73 65 60 77 79 75 78 80 86 89 91 92 86 76 80 72 71 71 82 80 72 54 49 48 43 54 57 52 52 53
84 90 97 91 92 91 89 99 86 94 99 94 89 88 67 71 67 69 83 88 72 81 74 89 89 92 82 88 88 65 60 64 69 69 55 59 50 47 50 48 51 52 55 58
98 100 100 96 94 94 88 94 93 89 92 100 88 70 70 69 71 76 77 72 70 76 86 90 92 98 74 94 79 78 64 62 64 67 57 53 52 49 50 54 56 62 58 57
100 100 100 96 98 93 97 99 97 98 89 96 94 80 69 69 70 72 77 81 83 86 93 98 95 87 87 86 92 87 83 69 70 65 51 55 61 54 51 62 65 62 64 65
97 92 91 84 79 73 70 88 88 97 100 99 99 79 76 80 78 79 82 89 93 94 96 91 90 81 84 99 96 71 64 59 52 56 47 50 50 54 58 59 58 57 57 59
85 82 79 72 65 60 74 86 95 93 92 95 95 91 80 85 84 90 91 90 91 93 88 91 82 87 87 98 93 73 68 62 57 55 62 70 66 67 56 55 53 51 52 52
71 68 63 62 64 65 65 70 82 82 89 92 98 90 78 86 87 88 93 88 92 92 95 93 91 94 93 98 77 76 67 67 66 66 60 63 61 60 65 64 64 67 71 69
66 57 54 50 47 58 77 91 79 74 77 94 99 91 86 83 90 79 87 93 89 88 91 95 92 85 96 86 87 82 77 77 73 64 72 79 86 86 80 76 72 78 79 77
69 59 66 88 90 97 97 89 91 91 89 94 94 92 91 84 91 92 95 92 82 95 88 90 98 81 76 94 95 90 86 84 75 81 94 76 80 83 76 76 77 82 83 79
72 87 89 96 97 87 87 92 95 95 94 90 88 88 89 79 94 90 88 95 94 94 79 84 82 93 87 90 84 83 81 73 71 62 60 59 57 64 63 58 55 60 64 69
75 84 91 88 84 91 86 92 91 97 94 91 97 90 90 89 94 96 95 93 96 93 84 96 99 83 84 88 80 81 74 68 60 56 51 40 45 40 40 46 51 51 53 51
80 68 82 88 93 96 100 99 85 98 94 98 99 98 92 93 85 99 91 97 96 92 96 91 88 86 95 93 90 73 63 55 51 48 42 46 50 51 67 61 54 53 60 56
82 82 74 83 96 95 92 86 89 85 97 98 95 95 85 89 89 80 91 92 97 96 100 94 93 95 91 91 93 88 57 48 53 56 55 58 60 63 62 60 56 58 63 54
86 86 80 96 78 94 95 94 96 98 93 92 96 96 92 91 90 89 88 98 100 97 92 78 90 85 86 96 98 96 86 72 70 58 58 58 60 64 66 59 56 59 62 64
97 98 85 89 99 98 99 100 98 96 96 89 89 98 98 93 100 100 98 99 94 71 91 89 88 85 86 88 84 83 77 75 55 48 52 56 57 56 55 53 54 56 56 55
100 91 92 96 98 91 95 90 84 86 88 96 97 100 95 92 100 100 92 94 71 73 77 78 71 72 71 80 74 67 63 55 53 52 53 55 55 56 60 66 59 56 56 58

GFSNW_925_rhum_162.txt.gz
RH
75 66 56 50 42 45 46 53 55 48 47 66 84 69 50 46 51 52 52 49 47 43 44 50 49 50 56 59 51 55 59 54 72 45 60 56 51 57 65 67 53 81 64 70
77 69 60 51 47 49 55 69 70 41 39 61 65 54 52 54 51 55 56 53 52 49 49 47 54 60 59 60 63 60 51 50 63 41 55 62 70 65 57 63 70 79 69 57
79 70 62 54 49 45 49 62 58 64 72 68 54 50 52 46 54 56 54 56 52 50 52 53 56 64 63 61 63 66 53 66 46 46 39 63 70 67 64 55 85 66 62 37
79 72 66 55 51 42 45 76 67 63 72 58 57 55 50 55 53 58 57 54 55 53 55 56 56 65 68 64 65 67 56 59 71 68 66 65 65 66 73 75 56 56 41 56
78 75 71 59 50 45 51 63 59 71 68 61 51 57 53 52 52 54 54 56 55 58 57 52 47 58 66 56 75 67 76 58 77 67 62 72 74 68 70 71 66 70 62 62
80 78 74 65 58 48 63 76 72 63 71 65 53 54 48 46 50 49 52 58 59 57 56 52 52 53 58 56 67 77 78 76 80 60 72 68 57 59 60 59 68 56 58 40
78 80 74 67 65 66 69 74 74 62 51 70 61 51 45 46 48 48 51 53 54 48 53 51 52 57 62 62 64 73 86 74 79 88 72 78 45 46 48 59 58 58 51 48
79 81 80 73 66 69 72 76 75 80 62 72 66 66 58 55 56 54 53 51 56 63 54 57 62 68 57 67 81 74 80 80 74 87 89 70 48 44 50 54 46 54 59 56
78 82 82 79 73 73 78 78 78 81 78 66 61 58 58 66 69 69 54 58 61 60 71 67 68 64 62 64 71 82 85 83 73 90 97 88 51 39 39 37 65 42 48 46
76 83 84 83 79 72 82 86 84 81 86 82 62 73 70 68 74 78 77 56 59 63 82 81 87 82 65 66 67 96 94 92 95 87 93 83 60 50 40 63 58 41 46 51
79 82 86 87 84 84 93 89 90 84 93 88 80 68 71 78 79 77 67 69 76 86 80 85 84 90 79 67 65 87 91 94 92 84 93 90 56 49 60 54 51 55 55 53
98 80 85 90 88 87 91 90 86 87 87 82 76 73 70 66 60 79 82 72 78 80 84 88 91 94 92 82 85 75 76 76 86 80 74 55 55 50 45 56 61 55 53 54
99 92 85 90 91 91 88 92 86 93 99 93 88 87 71 78 77 71 85 88 74 81 74 84 85 93 85 91 90 71 65 67 75 70 57 62 59 56 54 58 55 50 54 59
99 100 96 96 96 97 96 98 95 91 91 100 87 71 70 70 71 76 80 74 74 77 83 87 92 97 79 92 78 79 63 70 68 76 64 59 54 53 51 57 57 62 65 62
93 100 100 100 100 100 100 94 97 94 87 95 90 80 74 77 76 80 84 81 82 87 94 98 99 94 96 92 96 98 80 74 76 68 50 55 56 54 55 59 73 71 69 63
100 100 100 97 97 94 86 86 91 100 99 100 99 84 83 83 80 80 84 86 90 89 95 98 90 81 92 99 99 71 70 61 58 65 56 56 54 57 59 62 61 58 59 61
79 82 78 75 74 71 75 85 86 89 97 96 99 94 77 87 85 91 92 93 94 94 92 94 88 79 84 95 87 62 69 68 67 64 67 69 68 78 69 65 59 56 54 55
78 75 72 70 68 67 66 79 83 83 88 90 98 95 75 84 87 86 91 90 91 89 95 92 92 85 90 99 78 76 80 80 71 71 80 79 92 98 99 92 89 93 88 76
69 64 58 47 45 54 71 86 79 80 79 93 93 96 87 82 89 85 89 90 88 88 92 92 88 83 88 87 97 92 88 89 86 94 87 82 78 83 82 83 75 76 75 74
68 59 49 75 86 95 99 92 87 92 87 99 92 92 93 86 93 95 93 90 90 97 90 89 95 86 83 94 89 89 81 78 83 74 63 60 53 53 51 58 66 74 75 70
67 82 88 99 93 82 88 95 96 95 96 94 90 92 93 84 91 88 87 94 96 95 79 82 81 93 88 81 81 82 73 65 62 57 58 58 62 59 48 41 37 37 42 57
67 78 88 88 84 91 87 95 94 98 93 90 95 91 87 90 93 92 95 94 97 94 86 95 99 80 82 87 82 80 74 66 60 54 56 50 45 44 50 53 56 56 52 50
84 68 84 90 94 96 99 98 96 98 93 96 98 98 97 97 89 96 97 98 95 95 96 92 88 78 84 92 83 85 76 69 62 56 44 42 48 46 52 62 57 59 60 54
83 81 71 88 94 96 89 86 88 84 96 97 92 94 77 90 96 87 96 81 94 89 90 96 90 84 83 90 92 92 86 80 79 60 49 53 56 58 52 54 54 62 65 60
82 83 73 91 77 89 93 95 98 93 95 93 95 95 80 94 89 80 83 95 91 87 94 81 84 71 86 88 88 93 96 91 86 70 68 62 54 56 61 59 58 60 64 66
90 97 78 87 98 96 97 93 92 95 95 87 88 100 100 98 95 96 94 100 99 78 91 88 84 83 77 76 79 85 85 85 80 75 72 62 53 54 56 56 57 58 59 61
100 90 91 93 96 89 92 95 94 92 94 95 97 100 88 92 100 100 95 97 81 78 78 86 64 59 58 61 63 64 66 72 70 65 58 57 56 58 64 69 61 58 59 62

GFSNW_925_rhum_165.txt.gz
RH
74 66 58 51 48 40 47 54 51 44 42 64 82 68 49 45 52 53 54 50 48 44 46 50 51 48 54 59 54 53 59 50 68 48 63 58 55 57 59 60 52 74 57 67
75 67 60 52 50 47 58 69 68 36 33 59 64 54 53 55 54 58 57 53 53 51 51 46 55 59 59 63 61 53 49 49 53 36 50 60 68 63 57 59 67 74 60 57
75 72 65 53 45 43 46 62 60 65 74 69 52 47 55 46 55 58 56 57 52 50 52 55 56 63 63 64 66 64 55 62 35 36 28 60 70 72 64 54 73 61 54 35
74 73 69 55 45 39 41 78 69 66 76 61 58 56 51 53 51 58 58 55 55 54 53 56 56 64 66 65 72 67 57 58 65 61 57 66 65 63 74 68 55 48 26 46
70 75 72 60 48 40 48 63 59 72 71 63 51 56 53 52 52 55 50 50 56 58 55 48 50 55 65 54 74 67 75 60 73 63 62 68 69 63 73 69 62 60 51 56
72 76 74 67 57 46 61 77 74 64 70 67 51 52 48 46 51 49 53 56 58 56 54 54 52 53 59 56 64 75 74 74 74 54 73 68 65 66 64 62 69 59 59 40
73 75 79 73 63 62 63 72 74 62 52 69 60 52 46 48 49 50 52 54 54 48 55 52 55 58 62 64 67 73 84 69 74 83 68 78 43 52 51 57 54 60 49 48
74 74 78 79 72 69 67 75 74 77 62 68 63 68 64 56 57 55 54 52 58 66 54 59 60 64 56 72 84 77 77 76 73 85 87 67 47 46 51 56 48 50 56 55
86 72 78 77 77 70 70 76 76 79 73 62 59 61 59 68 66 66 56 59 63 61 72 66 63 57 54 60 69 85 86 81 73 90 97 85 50 38 40 40 64 44 52 49
99 79 76 80 79 75 70 80 79 78 79 76 60 71 69 69 74 75 76 60 62 64 81 78 84 80 65 66 65 98 97 94 93 85 93 82 60 51 42 60 53 45 46 50
95 98 78 82 82 80 78 85 87 82 89 85 78 66 70 77 78 74 67 68 74 84 81 86 84 90 81 73 64 84 88 94 89 81 92 91 56 51 57 53 50 52 56 54
84 99 88 84 85 84 84 85 87 90 84 81 75 73 71 61 60 78 80 72 76 80 83 88 89 93 93 84 86 76 79 73 84 80 73 57 54 48 47 52 59 58 54 52
59 75 99 86 88 90 86 87 85 90 97 94 88 83 70 76 77 71 82 88 75 80 76 87 86 89 86 94 93 74 67 69 72 69 57 62 58 58 54 55 60 52 51 58
80 86 94 100 95 96 94 99 90 89 90 100 89 72 71 70 74 79 79 77 75 74 78 84 97 100 79 97 82 81 68 70 71 79 67 59 53 52 52 52 54 62 66 66
95 92 92 100 100 100 100 100 99 97 90 97 89 80 78 78 76 80 88 87 85 89 96 96 98 96 96 93 92 94 78 70 76 70 58 60 65 74 66 65 69 63 73 74
100 100 100 100 100 100 99 92 99 100 100 100 99 86 82 83 82 83 87 90 89 91 98 98 97 87 98 99 94 76 82 74 69 76 66 70 69 68 72 64 65 64 60 66
83 86 86 86 90 85 84 92 83 90 92 97 99 98 75 87 86 90 91 93 94 94 98 99 99 93 91 100 97 67 69 79 78 70 66 73 89 96 94 94 91 88 84 82
80 78 78 80 80 75 75 90 87 99 90 88 99 95 74 85 92 89 91 94 96 92 99 97 99 91 92 99 81 87 81 83 81 90 88 85 96 83 81 83 77 75 71 71
68 63 55 46 43 55 79 94 87 84 83 100 100 95 84 78 90 89 89 87 93 87 97 92 88 87 89 81 96 91 87 89 87 81 74 65 60 56 51 55 52 60 56 54
73 51 39 72 86 93 92 88 89 92 94 100 98 91 91 87 94 96 94 96 90 100 89 89 96 88 73 92 91 92 83 83 75 63 58 52 53 53 49 47 45 52 61 58
62 77 88 99 86 83 88 97 95 94 91 94 90 91 94 85 89 91 88 94 96 98 80 82 86 93 84 88 88 86 79 72 61 58 54 56 57 59 60 59 50 47 47 49
61 78 91 83 83 91 90 99 94 97 88 90 96 93 84 87 92 86 94 96 98 94 87 96 99 79 74 89 84 81 79 74 70 62 64 60 59 54 55 54 55 53 51 50
84 70 86 91 93 93 98 99 95 100 95 97 93 98 95 98 93 90 98 97 94 95 97 88 84 69 76 88 86 83 77 78 77 72 63 58 57 46 47 52 45 47 56 53
86 82 78 87 94 95 91 88 91 88 96 89 89 96 95 98 98 97 97 93 96 95 96 92 89 80 72 81 87 87 84 83 86 85 80 78 66 56 56 59 55 56 60 60
79 82 73 89 79 91 93 96 94 94 96 92 96 95 92 96 91 83 94 91 86 79 90 83 90 67 76 83 81 88 91 90 90 85 87 82 75 74 70 61 51 53 62 66
89 96 81 85 94 94 96 98 97 94 94 93 93 95 93 96 85 95 84 94 100 82 92 86 84 81 76 72 69 70 67 74 77 74 75 74 75 74 67 57 54 58 62 63
100 89 89 88 94 83 89 89 92 89 96 97 96 100 92 92 98 99 93 97 79 82 82 85 66 53 48 51 54 54 54 62 67 68 67 68 66 67 66 69 62 62 63 64